Temperature
20 20 20 20 24 25 24 23 23 23 22 21 21 22 22 22 22 20 17 17 17 17 17 17 17 17 17 17 17 17 17 17 17 17 17 17 17 17 17 17 17 17 17 17 17 17 17 18 17
20 20 20 22 25 24 23 23 23 23 22 21 21 22 21 20 19 18 17 17 17 16 16 17 17 17 17 17 17 17 17 17 17 17 17 17 17 17 17 17 17 17 17 17 17 17 17 17 17
20 20 21 24 24 24 23 23 23 22 22 22 22 21 21 19 19 18 17 17 17 16 16 17 17 17 17 17 17 17 17 17 17 17 17 17 16 16 16 16 16 17 17 17 17 17 17 17 17
19 21 23 25 23 23 23 23 23 23 22 22 22 21 20 19 18 18 17 17 17 16 16 16 17 17 17 17 17 17 16 16 16 16 16 16 16 16 16 16 16 16 16 17 17 17 17 17 17
20 23 24 24 23 23 24 23 23 23 22 22 22 21 19 18 18 17 17 17 17 17 16 16 16 16 16 16 16 16 16 16 16 16 16 16 16 16 16 16 16 16 16 16 16 16 17 17 17
21 24 24 23 23 23 23 23 23 23 22 22 21 21 19 18 18 17 17 17 17 17 16 16 17 17 16 16 16 16 16 16 16 16 16 16 16 16 16 16 16 16 16 16 16 16 16 16 17
22 24 24 23 22 23 23 23 23 23 23 22 22 21 19 18 17 17 17 17 17 17 17 16 16 16 16 16 16 16 16 16 16 16 16 16 16 16 16 16 16 16 16 16 16 16 16 16 16
21 24 23 23 23 22 23 23 22 23 22 21 21 21 20 18 17 17 17 17 17 17 17 16 16 16 16 16 16 16 16 16 16 16 16 16 15 15 15 15 15 15 15 16 16 16 16 16 16
21 23 23 23 23 22 23 23 22 22 21 21 21 21 19 18 18 18 17 17 17 17 17 17 17 16 16 16 16 16 16 16 16 16 16 15 15 15 15 15 15 15 15 15 16 16 16 16 16
22 23 23 23 23 23 23 23 22 22 22 21 20 19 18 18 18 18 18 18 18 17 17 17 17 16 16 16 16 16 16 15 15 15 15 15 15 15 15 15 15 15 15 15 15 15 15 15 16
22 22 22 22 22 22 22 22 22 23 22 21 20 19 19 19 19 19 19 18 18 18 17 17 17 17 16 16 16 16 16 15 15 15 15 15 15 15 15 15 15 15 15 15 15 15 15 15 15
22 21 22 22 21 22 22 22 21 22 21 20 20 20 19 19 19 19 19 18 18 18 18 17 17 17 17 16 16 16 16 16 15 15 15 15 15 15 15 15 15 15 15 15 15 15 15 15 16
22 21 21 21 21 21 21 21 21 20 20 20 20 20 20 20 19 19 19 18 18 18 17 17 17 17 17 16 16 16 16 16 15 15 15 15 15 15 15 15 15 15 15 15 15 15 15 15 15
21 21 21 21 21 21 21 21 21 20 20 20 20 20 20 19 19 19 19 19 19 18 18 17 17 17 17 16 16 16 16 15 15 15 15 15 15 15 15 15 14 15 15 15 15 15 15 15 15
21 22 22 21 22 21 22 22 21 20 20 20 20 20 19 19 19 19 19 19 19 18 18 17 17 17 17 17 16 16 16 16 15 15 15 15 15 15 15 15 15 14 14 15 15 15 15 15 15
22 22 21 21 21 21 22 21 21 20 20 20 20 20 19 19 19 19 19 19 18 18 18 17 17 17 17 16 16 16 16 15 15 15 15 15 15 14 14 14 14 14 14 14 14 14 15 15 15
22 21 21 21 21 22 22 21 21 20 20 21 20 20 20 19 19 19 19 19 18 18 18 18 17 17 17 16 16 16 16 15 15 15 15 15 15 14 14 14 14 14 14 14 14 14 14 14 14
21 21 21 21 21 22 21 21 20 20 20 21 20 20 20 20 19 19 18 18 18 18 18 17 17 17 17 16 16 16 16 16 15 15 15 15 15 14 14 14 14 14 14 14 14 14 14 14 14
22 22 22 21 21 21 21 21 21 20 20 20 21 21 20 20 19 18 18 18 18 18 18 17 17 17 17 16 16 16 16 15 15 15 15 15 14 14 14 14 14 14 14 14 14 14 14 14 14
22 22 21 21 21 22 21 21 21 21 21 20 21 21 20 20 19 18 18 18 18 18 18 17 17 17 17 16 16 16 16 15 15 15 15 15 15 15 14 14 14 14 14 14 14 14 14 14 14
22 22 22 21 21 22 22 22 22 21 20 20 20 20 20 20 20 19 18 18 18 18 18 18 17 17 17 16 16 16 16 15 15 15 15 15 15 15 14 14 14 14 14 14 13 13 13 13 14
21 22 22 22 22 22 23 22 23 23 22 21 20 20 20 19 19 19 18 18 18 18 18 17 17 17 17 16 16 16 16 15 15 15 15 14 14 14 14 14 14 14 14 13 13 13 13 13 13
22 22 22 22 23 23 23 23 24 23 22 22 21 20 20 19 19 18 18 18 18 18 18 17 17 17 17 16 16 16 16 15 15 15 15 14 14 14 14 14 14 14 14 13 13 13 13 13 13
22 22 22 23 23 22 23 23 24 24 24 24 22 21 20 19 18 18 18 18 18 18 18 17 17 17 17 17 16 16 15 15 15 15 15 14 14 14 14 14 14 14 14 13 13 13 13 13 13
22 23 22 22 22 23 23 23 24 25 24 24 23 21 20 19 18 18 17 17 17 18 17 17 17 17 17 16 16 16 15 15 15 15 14 14 14 14 14 14 14 14 13 13 13 13 13 13 13
23 23 23 22 22 23 23 23 25 24 22 22 22 21 20 19 18 18 17 17 18 17 17 17 17 17 16 16 15 15 15 15 15 15 14 14 14 14 14 14 13 13 13 13 13 13 13 13 12
23 23 24 24 23 23 24 24 24 23 22 21 21 20 19 19 18 18 17 17 17 17 17 17 17 16 16 16 15 15 15 15 15 14 14 14 14 14 13 13 13 13 13 13 13 13 13 12 12
24 24 23 23 22 23 23 24 25 24 23 22 21 20 19 19 18 17 17 17 17 17 17 17 16 16 16 16 15 15 15 15 15 14 14 14 13 13 13 13 13 13 13 13 13 12 12 12 12
23 23 23 24 24 23 23 24 26 25 24 23 22 21 20 19 18 17 17 17 17 17 17 16 16 16 16 16 15 15 15 15 14 14 14 14 13 13 13 13 13 13 12 12 12 12 12 12 12
24 24 24 23 23 24 24 25 25 24 24 23 22 21 20 19 18 17 17 17 17 17 16 16 16 16 16 15 15 15 15 14 14 14 13 13 13 13 13 13 12 12 12 12 12 12 12 11 11
Wind_Speed
3 3 3 3 2 4 7 6 5 6 5 7 8 7 9 9 7 7 5 5 7 8 9 11 12 12 12 13 13 13 13 12 11 11 11 10 10 9 9 9 9 8 8 8 8 7 7 7 7
3 2 3 2 2 6 7 6 8 8 7 7 8 9 9 9 8 8 7 7 8 9 10 12 12 13 13 13 13 13 13 12 12 11 11 10 9 9 9 9 9 8 8 8 8 8 7 7 7
2 2 2 1 4 6 7 7 9 9 7 5 6 7 6 7 7 6 9 9 10 10 11 13 12 13 14 14 13 13 12 12 12 11 10 9 9 8 8 8 8 8 8 8 8 7 7 7 7
2 2 1 3 9 8 8 8 8 9 7 6 8 9 7 7 7 10 11 10 11 10 12 13 12 13 14 13 13 12 12 12 11 10 9 8 8 8 7 7 7 7 7 7 7 7 7 6 7
2 2 4 7 9 8 8 6 5 7 6 8 10 11 10 9 12 13 12 11 11 10 11 13 12 13 13 13 12 12 12 11 10 10 9 8 8 7 7 6 6 7 7 7 7 7 7 7 6
2 2 5 8 10 8 7 6 7 11 12 12 12 12 9 10 12 12 11 10 10 10 10 12 11 11 11 12 11 11 10 10 10 9 9 9 8 8 8 7 7 7 7 7 7 7 7 7 6
1 2 6 10 11 9 7 6 8 10 11 9 9 11 9 10 10 10 10 9 9 9 9 9 10 10 11 11 10 10 10 9 9 9 8 8 8 8 8 7 7 7 7 7 7 7 7 7 6
1 3 8 9 10 9 6 7 8 9 9 8 6 8 11 11 10 10 9 9 8 7 8 8 8 8 9 9 10 9 9 8 8 8 7 6 5 5 5 6 7 7 8 7 7 7 7 6 6
1 4 7 8 9 9 8 9 8 7 10 8 8 11 14 14 12 10 9 8 8 7 7 7 7 7 7 7 7 7 7 7 5 6 6 3 5 6 5 9 8 7 7 7 7 7 5 4 2
1 5 6 6 8 9 9 9 8 9 12 12 14 13 14 12 11 10 9 9 8 7 6 6 5 5 6 6 6 5 6 6 6 7 6 5 5 5 5 5 5 6 5 3 5 4 3 5 3
3 5 7 8 9 9 9 8 6 10 10 11 14 15 13 12 10 10 9 8 8 7 6 5 5 5 5 5 5 5 5 5 6 6 6 5 5 4 5 5 4 4 4 5 4 4 4 4 4
5 6 7 8 8 8 8 8 8 8 9 9 12 14 13 11 10 9 9 8 7 7 7 6 5 5 5 5 5 4 5 5 5 6 7 6 5 5 5 5 6 5 4 5 5 4 5 5 4
8 8 9 9 9 10 11 10 9 10 9 10 13 13 12 10 9 8 7 7 7 7 6 6 5 5 5 5 4 5 5 5 6 5 6 6 5 5 5 5 5 6 5 5 4 5 5 5 5
9 11 10 9 9 9 11 9 8 8 9 11 12 11 10 9 8 8 7 7 7 6 6 5 5 5 4 4 4 5 5 5 5 6 6 6 6 6 5 5 5 6 6 6 5 5 4 4 4
11 12 10 7 7 7 9 9 8 7 9 10 10 10 9 8 7 7 6 6 6 6 6 6 5 4 4 4 5 4 4 5 5 5 6 6 6 6 6 6 6 6 6 6 6 5 4 4 4
7 8 7 4 4 4 5 8 6 6 9 9 9 9 8 7 6 6 5 5 6 6 6 5 4 4 4 4 4 4 5 5 5 5 6 7 7 7 6 5 6 6 6 6 5 5 5 4 4
6 8 9 5 4 4 5 7 5 5 8 9 8 9 8 8 6 5 4 5 5 6 6 5 4 4 4 4 3 4 4 4 5 5 5 6 7 7 6 5 6 7 6 6 6 6 6 5 5
9 9 7 5 4 6 7 6 4 5 7 8 8 8 8 8 6 5 5 5 6 5 6 5 5 4 4 3 3 3 3 3 4 4 5 6 6 7 6 5 6 7 5 6 6 6 5 5 5
9 9 8 5 3 5 7 6 5 6 8 8 8 8 8 7 6 6 6 6 6 6 5 5 4 4 3 2 2 2 2 2 3 4 5 5 6 6 6 5 6 6 5 6 7 6 6 6 6
8 9 8 6 5 4 6 5 5 6 8 8 8 9 9 8 8 7 7 6 6 5 4 4 4 3 2 2 1 1 2 2 3 3 4 5 6 6 6 6 5 5 4 6 6 6 6 5 6
7 7 7 7 6 5 5 5 7 7 8 8 8 8 8 9 9 8 8 7 6 5 5 4 4 4 3 2 2 1 1 1 2 3 3 4 5 5 6 6 5 5 5 5 6 6 6 6 6
6 5 6 8 7 4 5 4 7 9 10 10 10 10 10 9 9 8 8 8 7 6 5 5 4 4 3 3 2 2 1 2 3 3 3 3 4 5 5 5 5 5 5 5 5 5 5 5 5
4 6 6 5 4 4 5 4 5 9 11 13 13 12 11 10 10 9 9 8 7 6 5 5 5 4 3 3 2 1 2 2 2 2 3 3 4 5 5 6 5 5 5 5 5 5 5 5 5
9 8 6 4 4 4 4 5 4 8 10 12 13 13 13 12 11 10 9 8 7 7 6 5 5 4 3 3 2 2 2 2 3 3 4 3 3 4 6 6 5 5 5 5 5 5 5 5 5
8 8 4 5 4 3 3 5 4 4 6 9 12 14 13 13 12 11 11 10 8 8 7 6 6 5 4 3 3 2 2 2 2 3 3 4 4 4 6 5 5 5 5 6 5 5 5 5 5
8 7 3 2 3 2 4 5 2 3 4 6 9 11 13 13 12 12 11 10 9 9 8 7 6 5 4 3 3 2 2 1 2 2 3 3 4 4 5 5 5 6 6 6 5 5 5 5 5
7 6 3 2 2 3 4 3 3 5 6 8 10 12 13 13 13 12 11 10 10 9 8 7 7 6 5 4 3 2 2 1 2 2 2 3 3 4 5 5 5 5 6 6 5 4 5 5 5
4 4 4 4 3 3 3 5 4 7 9 11 12 13 14 14 13 13 12 11 10 9 8 8 7 6 5 4 3 2 1 1 1 1 2 3 3 4 4 5 5 5 6 6 5 5 6 5 5
7 6 5 4 5 4 2 1 1 4 7 11 12 13 14 15 14 13 12 11 10 9 9 8 7 6 5 4 4 3 2 1 1 1 2 2 2 3 4 4 5 6 6 6 5 6 6 6 6
8 9 9 7 5 5 5 3 3 3 5 8 10 12 14 14 14 13 13 12 11 10 10 9 8 7 6 5 4 3 3 2 1 1 1 2 2 3 4 4 5 5 6 6 6 6 6 7 7
Wind_Direction
280 287 276 259 210 104 86 85 90 92 77 73 77 79 77 59 57 86 100 99 95 92 94 95 90 93 93 91 91 91 89 89 88 86 85 82 77 73 68 64 60 55 53 49 45 40 38 37 33
302 290 259 252 156 112 91 93 92 85 105 106 84 80 77 71 72 94 106 104 99 92 90 87 88 88 88 87 86 86 84 82 79 77 76 75 72 69 65 59 54 49 46 43 38 33 32 31 28
268 271 282 186 102 98 106 104 102 95 101 102 92 70 65 80 88 98 110 113 101 91 89 88 87 86 86 85 85 84 83 80 76 73 69 67 65 62 59 54 49 43 41 37 32 27 26 22 18
259 232 212 111 100 83 103 115 113 112 95 89 102 86 78 72 90 108 116 111 100 93 91 90 86 87 85 84 83 83 81 79 76 71 66 61 59 56 51 45 42 36 32 29 25 21 19 16 12
252 239 141 114 98 96 101 106 113 111 104 104 100 99 93 88 103 111 112 106 100 98 95 93 85 85 84 81 80 80 79 77 75 69 63 58 54 50 46 41 38 32 26 23 19 14 11 10 11
226 202 143 124 113 110 105 104 111 109 111 108 105 104 96 109 112 112 111 105 100 99 100 100 93 84 80 77 74 74 73 71 69 66 62 58 53 48 47 41 37 33 26 21 17 13 10 10 7
242 141 129 126 124 117 104 101 108 114 112 105 112 109 115 119 113 116 114 109 103 101 100 100 102 100 94 81 71 69 69 67 66 64 61 59 56 52 49 45 36 32 29 24 19 16 14 11 8
338 140 132 130 129 115 106 104 102 106 104 108 113 117 128 131 128 123 117 113 110 107 101 98 94 90 91 90 76 70 69 66 66 63 59 61 74 68 49 48 42 31 29 25 20 15 14 11 11
233 157 136 131 129 121 120 116 99 101 110 104 96 106 121 131 134 129 123 118 112 106 103 102 97 89 85 81 80 80 77 66 73 76 66 42 42 45 51 44 38 32 30 27 22 16 10 345 21
174 136 117 115 122 123 119 114 117 122 113 112 109 111 124 135 135 129 122 117 114 110 106 103 99 91 88 81 80 66 65 65 58 52 47 41 44 37 33 70 47 36 22 27 29 350 308 300 348
100 107 113 115 117 121 116 108 110 125 116 124 129 132 136 136 131 124 117 112 110 109 103 100 98 91 87 85 71 61 62 65 61 48 44 34 35 36 28 19 28 17 356 8 8 331 356 347 357
107 98 112 115 119 122 120 115 106 99 107 118 128 134 138 137 128 122 116 113 113 107 100 95 93 93 88 82 78 72 67 60 56 45 37 33 30 22 23 14 13 9 13 7 356 351 356 345 344
114 111 103 108 109 112 114 112 110 103 108 118 127 133 135 130 124 118 114 114 113 109 103 90 85 82 85 81 78 74 64 52 59 44 35 35 28 24 21 22 15 10 7 1 353 349 358 344 345
118 118 113 114 110 110 116 114 116 115 125 128 133 136 135 130 129 126 125 120 116 113 104 100 92 87 89 93 84 70 67 66 50 47 40 33 30 24 16 20 19 12 4 358 348 355 344 337 341
125 120 109 102 110 120 122 114 119 132 140 136 138 135 133 133 131 124 119 117 114 112 110 102 94 87 85 81 73 70 64 57 52 46 38 37 30 23 21 17 18 11 4 359 355 355 343 341 338
135 137 129 99 105 133 147 131 121 145 151 145 143 140 141 140 137 127 124 123 122 120 114 109 103 95 88 84 76 70 64 58 55 47 40 33 31 28 24 17 17 11 6 4 3 357 348 345 340
158 148 137 120 100 138 146 136 136 160 163 155 152 151 150 145 142 138 138 134 131 126 123 116 106 100 98 96 89 73 69 60 54 48 40 28 27 24 26 17 10 11 9 8 4 7 355 353 347
155 151 142 132 109 132 140 142 152 168 173 165 162 162 156 151 147 146 140 136 138 133 125 119 118 110 110 110 98 91 76 64 56 48 39 26 21 19 19 17 16 12 14 11 10 8 4 354 346
153 156 145 130 129 140 151 157 176 173 179 181 178 171 164 155 150 150 148 146 147 143 134 128 130 125 126 117 104 88 78 63 58 46 35 25 20 16 16 10 17 11 17 11 8 3 5 5 354
153 154 143 135 139 154 164 175 183 187 191 192 188 179 173 167 163 155 156 152 150 145 144 141 134 129 121 105 91 80 64 55 50 39 36 24 19 15 8 11 11 16 11 13 12 8 0 8 5
164 172 156 145 143 162 172 192 199 192 193 195 200 198 187 181 175 165 162 157 155 150 147 145 138 132 126 128 124 120 117 121 78 49 34 21 17 17 10 9 6 7 7 12 6 4 3 1 10
166 173 164 164 174 169 204 200 194 191 194 198 199 200 196 186 180 171 167 163 160 154 152 148 141 131 123 128 120 93 56 46 35 18 22 17 22 18 12 7 3 4 5 3 0 7 357 351 357
140 148 158 178 190 190 207 229 184 184 204 203 199 199 197 189 182 175 172 166 161 154 154 149 139 129 121 115 104 95 71 57 47 30 25 14 26 18 14 5 2 1 360 359 356 353 351 350 347
142 144 149 186 216 221 214 234 209 194 207 198 194 194 193 187 181 176 172 167 161 156 155 152 147 134 128 126 117 96 79 59 46 32 23 16 25 20 19 7 2 1 359 356 352 348 350 347 344
179 176 178 194 210 205 170 236 234 186 195 200 193 190 187 183 180 177 174 173 168 164 162 161 156 147 144 141 127 108 94 70 45 27 30 18 24 25 19 11 4 5 2 358 352 348 347 347 344
194 221 232 211 206 179 191 231 210 144 180 198 195 187 182 181 181 179 177 175 170 168 167 167 160 155 153 155 142 123 111 77 50 31 22 22 19 19 14 12 9 8 4 358 357 346 349 346 343
191 220 281 288 261 248 211 227 239 187 195 190 185 184 184 182 181 179 176 176 173 172 172 170 167 163 162 163 156 142 113 84 58 35 24 23 21 16 13 9 8 10 7 0 354 352 350 348 343
247 204 204 229 235 236 225 236 221 191 198 192 190 190 187 183 182 179 178 177 175 172 170 171 173 168 164 166 162 143 136 113 70 28 28 23 21 19 11 8 7 7 6 2 358 352 353 345 345
187 202 221 236 258 266 255 222 158 204 194 195 195 193 187 184 182 180 178 175 173 171 172 173 175 172 165 164 160 159 150 140 126 61 31 13 9 10 7 3 0 4 3 3 360 353 350 344 342
225 225 220 234 234 247 272 274 120 199 203 203 198 192 187 185 182 180 177 174 174 175 176 177 177 173 167 164 162 157 148 154 144 75 26 4 5 1 358 359 357 358 355 354 353 348 343 340 338
Height
1517 1516 1516 1517 1515 1514 1521 1522 1520 1523 1525 1528 1528 1528 1529 1531 1534 1544 1546 1544 1544 1545 1545 1545 1545 1545 1546 1546 1547 1547 1547 1547 1547 1547 1547 1547 1547 1547 1546 1546 1546 1545 1545 1544 1544 1543 1543 1542 1542
1517 1517 1518 1517 1513 1521 1526 1522 1523 1525 1528 1530 1530 1531 1532 1536 1540 1543 1545 1545 1546 1547 1547 1546 1546 1547 1547 1547 1548 1548 1548 1548 1548 1548 1548 1548 1548 1547 1547 1546 1546 1545 1545 1544 1544 1543 1543 1542 1542
1517 1517 1519 1514 1515 1520 1526 1524 1525 1528 1530 1530 1532 1534 1536 1541 1543 1545 1547 1547 1548 1549 1549 1548 1548 1549 1549 1549 1549 1549 1549 1549 1549 1549 1549 1549 1548 1548 1547 1547 1546 1546 1545 1544 1544 1543 1543 1542 1542
1518 1520 1519 1516 1521 1522 1522 1525 1527 1529 1531 1532 1533 1537 1541 1544 1545 1547 1548 1550 1550 1551 1551 1550 1550 1551 1551 1551 1551 1551 1550 1550 1550 1550 1550 1549 1549 1549 1548 1548 1547 1546 1545 1545 1544 1543 1543 1542 1541
1519 1519 1516 1520 1523 1524 1524 1526 1527 1529 1531 1533 1535 1539 1544 1547 1548 1549 1550 1552 1553 1553 1553 1553 1553 1553 1553 1553 1553 1552 1552 1552 1552 1551 1551 1550 1550 1549 1549 1548 1547 1546 1546 1545 1544 1543 1543 1542 1541
1520 1517 1518 1523 1526 1526 1527 1529 1529 1530 1534 1536 1538 1541 1547 1550 1551 1552 1553 1554 1555 1555 1556 1555 1555 1555 1555 1555 1555 1554 1554 1554 1553 1553 1552 1551 1551 1550 1549 1549 1548 1547 1546 1545 1544 1543 1543 1542 1541
1520 1516 1519 1522 1527 1528 1529 1531 1530 1531 1535 1538 1540 1543 1549 1552 1553 1554 1555 1556 1556 1557 1558 1558 1559 1558 1557 1557 1557 1556 1556 1555 1555 1554 1553 1552 1552 1551 1550 1549 1548 1547 1546 1545 1544 1544 1543 1542 1541
1520 1518 1521 1523 1527 1530 1532 1532 1534 1534 1538 1541 1542 1544 1549 1553 1554 1555 1556 1557 1558 1559 1560 1560 1560 1560 1560 1559 1558 1558 1557 1557 1556 1555 1554 1554 1553 1552 1551 1550 1549 1548 1547 1546 1545 1544 1543 1542 1541
1521 1520 1523 1525 1527 1530 1532 1533 1537 1538 1540 1542 1544 1546 1550 1554 1556 1557 1558 1560 1561 1561 1562 1562 1562 1562 1562 1561 1560 1560 1559 1558 1557 1557 1556 1555 1555 1554 1553 1551 1549 1548 1547 1546 1545 1544 1543 1542 1541
1521 1521 1524 1525 1526 1530 1533 1535 1537 1539 1541 1544 1547 1550 1553 1555 1557 1559 1560 1561 1562 1563 1563 1563 1563 1563 1563 1563 1562 1561 1561 1560 1559 1558 1557 1557 1555 1554 1553 1551 1550 1549 1547 1546 1545 1544 1543 1542 1542
1522 1523 1526 1528 1530 1532 1534 1537 1538 1539 1542 1546 1548 1552 1555 1557 1559 1560 1561 1563 1564 1564 1564 1564 1564 1564 1564 1564 1564 1563 1562 1561 1560 1559 1558 1557 1556 1555 1554 1553 1551 1549 1548 1547 1545 1545 1544 1543 1542
1524 1527 1528 1531 1533 1534 1536 1539 1541 1542 1546 1548 1550 1553 1556 1558 1560 1561 1563 1564 1565 1565 1566 1565 1566 1566 1565 1565 1565 1564 1563 1562 1562 1561 1559 1558 1557 1556 1554 1553 1551 1550 1548 1547 1546 1545 1544 1543 1542
1526 1529 1532 1534 1535 1537 1538 1541 1543 1547 1549 1551 1553 1555 1557 1559 1561 1563 1564 1565 1566 1566 1567 1567 1567 1567 1566 1566 1565 1565 1564 1564 1563 1561 1560 1559 1558 1557 1555 1554 1551 1550 1549 1548 1546 1545 1544 1543 1542
1529 1530 1533 1535 1537 1539 1540 1543 1545 1550 1551 1553 1555 1557 1559 1561 1562 1564 1565 1566 1567 1567 1568 1567 1568 1567 1567 1567 1567 1566 1566 1564 1564 1562 1561 1560 1559 1557 1556 1555 1552 1551 1549 1548 1546 1545 1543 1542 1541
1530 1531 1535 1537 1538 1541 1542 1545 1548 1551 1552 1554 1556 1558 1560 1562 1563 1564 1565 1567 1568 1568 1569 1568 1568 1568 1568 1568 1567 1567 1566 1566 1565 1563 1562 1561 1559 1558 1557 1555 1553 1551 1549 1548 1546 1545 1543 1542 1541
1530 1532 1538 1539 1540 1542 1543 1549 1550 1552 1553 1554 1556 1558 1560 1562 1564 1565 1566 1567 1568 1569 1569 1569 1569 1569 1568 1568 1568 1568 1567 1566 1565 1564 1563 1562 1561 1559 1557 1555 1554 1552 1550 1548 1546 1545 1543 1542 1541
1531 1536 1539 1541 1541 1541 1542 1548 1551 1552 1553 1554 1556 1558 1560 1562 1564 1565 1566 1567 1568 1569 1570 1570 1570 1570 1569 1569 1568 1568 1568 1567 1566 1565 1564 1563 1561 1560 1558 1556 1554 1552 1550 1549 1547 1545 1543 1542 1540
1535 1536 1539 1542 1542 1541 1544 1548 1551 1552 1553 1554 1556 1557 1559 1561 1563 1565 1566 1567 1568 1569 1570 1570 1570 1570 1569 1569 1570 1569 1568 1568 1567 1566 1564 1563 1562 1560 1559 1557 1555 1553 1551 1549 1547 1546 1543 1542 1540
1530 1533 1538 1542 1543 1543 1545 1547 1549 1551 1552 1553 1555 1556 1558 1561 1563 1564 1565 1567 1568 1569 1570 1570 1570 1570 1570 1570 1570 1570 1569 1568 1567 1566 1564 1563 1562 1560 1559 1557 1555 1553 1551 1550 1548 1546 1545 1543 1541
1532 1536 1539 1543 1543 1543 1545 1546 1547 1549 1550 1552 1553 1555 1557 1560 1562 1563 1565 1566 1568 1568 1569 1570 1570 1570 1570 1569 1570 1569 1569 1568 1567 1566 1565 1564 1562 1560 1559 1558 1556 1554 1552 1550 1549 1547 1545 1544 1542
1534 1535 1537 1541 1543 1543 1544 1547 1545 1546 1549 1551 1552 1554 1555 1558 1560 1562 1564 1565 1566 1568 1568 1569 1569 1569 1569 1569 1569 1569 1568 1568 1568 1567 1565 1564 1562 1561 1559 1558 1556 1554 1553 1551 1549 1548 1546 1545 1543
1537 1535 1536 1538 1540 1542 1542 1547 1540 1540 1544 1547 1550 1552 1553 1556 1558 1560 1562 1564 1565 1566 1567 1568 1569 1569 1569 1569 1569 1569 1569 1569 1567 1566 1565 1564 1562 1561 1559 1558 1556 1555 1553 1552 1550 1548 1547 1545 1544
1534 1535 1536 1536 1537 1539 1539 1541 1536 1537 1540 1541 1545 1548 1551 1554 1556 1558 1560 1562 1564 1565 1566 1567 1568 1568 1568 1568 1568 1568 1568 1568 1567 1566 1565 1564 1562 1561 1559 1558 1557 1555 1554 1552 1550 1548 1547 1546 1544
1535 1537 1537 1536 1535 1545 1537 1538 1537 1531 1531 1533 1539 1544 1548 1551 1554 1556 1559 1561 1562 1564 1565 1566 1567 1567 1567 1568 1568 1568 1567 1567 1566 1566 1565 1564 1562 1561 1559 1558 1556 1555 1554 1552 1550 1548 1547 1545 1544
1533 1536 1545 1547 1546 1542 1535 1537 1532 1524 1527 1531 1535 1540 1544 1548 1551 1554 1556 1559 1560 1562 1563 1565 1566 1566 1566 1567 1567 1567 1567 1566 1566 1565 1564 1563 1562 1560 1559 1557 1556 1554 1553 1551 1549 1548 1546 1545 1543
1531 1531 1540 1549 1547 1539 1537 1536 1525 1526 1529 1532 1534 1538 1542 1545 1548 1551 1554 1556 1558 1560 1562 1563 1564 1565 1566 1566 1567 1567 1566 1566 1565 1564 1563 1562 1561 1560 1558 1556 1555 1553 1552 1550 1549 1547 1546 1544 1543
1531 1530 1528 1532 1536 1539 1532 1528 1524 1525 1528 1530 1533 1536 1539 1543 1546 1549 1551 1554 1556 1558 1560 1562 1563 1564 1565 1565 1565 1566 1565 1565 1564 1563 1562 1561 1560 1558 1557 1556 1554 1552 1551 1549 1547 1546 1545 1543 1541
1527 1526 1530 1533 1542 1542 1535 1529 1523 1521 1522 1526 1530 1533 1536 1540 1543 1546 1549 1551 1554 1556 1558 1560 1561 1563 1563 1564 1564 1564 1564 1563 1563 1562 1561 1560 1559 1558 1556 1555 1553 1552 1550 1548 1546 1545 1543 1542 1540
1529 1530 1528 1528 1529 1536 1537 1527 1512 1514 1517 1521 1525 1529 1533 1536 1540 1543 1546 1549 1551 1554 1556 1558 1559 1561 1561 1562 1562 1562 1562 1562 1561 1561 1560 1559 1558 1557 1556 1554 1552 1551 1549 1547 1545 1544 1542 1540 1539
1522 1522 1524 1531 1530 1528 1529 1525 1511 1514 1516 1519 1522 1526 1530 1534 1537 1540 1543 1546 1549 1551 1554 1556 1557 1559 1559 1560 1561 1561 1561 1560 1560 1560 1559 1558 1557 1556 1555 1553 1552 1550 1548 1546 1544 1542 1540 1539 1537